Location: Newark
(35.2161°N, 26.1013°E)
Time: 00:34:00
(UTC+00:00)

BEESAT 2 - Pass Details

Date: 23 January 2020
Orbit: 493 x 534 km, 64.9° (Epoch: 24 February)

Event Time Altitude Azimuth Distance (km) Brightness Sun altitude
Exits shadow 03:11:21 - 15° (NNE) 2,007 ? -26.3°
Reaches altitude 10° 03:12:56 10° 36° (NE) 1,788 ? -26.0°
Maximum altitude 03:13:40 10° 46° (NE) 1,761 ? -25.9°
Drops below altitude 10° 03:14:23 10° 57° (ENE) 1,785 ? -25.7°
Sets 03:18:32 0° 99° (E) 2,663 ? -24.9°
